Starlink 33678

operational
NORAD ID: 63509 Int'l Des: 2025-071 Owner: SPXS Country: US Constellation: starlink
LEOCIRCULAR

关于 Starlink 33678

正在加载描述...

实时位置

正在加载3D地球...

即将过境

高度历史

Altitude vs Time

uPlot chart will show altitude changes over time

两行轨道根数

1 63509U 25071S 25303.48116341 .00031072 00000-0 10564-2 0 9990
2 63509 53.1626 24.7458 0001597 84.5225 275.5958 15.30214004 32563
Epoch: Oct 30, 2025 • Age: 23 hours

当前状态

高度 475.2 km
速度 7.63 km/s
星下点 22.08°N, 9.51°W
发射日期 Apr 7, 2025
运行时间 0.5 years
类型 internet

技术详情

分类 Payload
质量 575.00 kg
干质量 530.00 kg
总质量 575.00 kg
长度 0.30 m
直径 4.10 m
跨度 29.00 m
形状 Box + pan
制造商 SPXS
平台类型 Starlink V2MO
阶段状态 In Orbit
所有者/国家 SPXS/US

大型星座

Loading constellations...